Regional Weather Roundup
Issued by NWS Cleveland, OH

Home | Current Version | Previous Version | Graphics & Text | Print | Product List | Glossary On
Versions: 1 2 3 4 5 6 7 8 9 10 11 12 13 14 15 16 17 18 19 20 21 22 23 24 25 26 27 28 29 30 31 32 33 34 35 36 37 38 39 40 41 42 43 44 45 46 47 48 49 50
000
ASUS41 KCLE 010700
RWRCLE
OHIO REGIONAL WEATHER ROUNDUP
NATIONAL WEATHER SERVICE WILMINGTON, OH
300 AM EDT WED JUL 01 2015

NOTE: "FAIR" INDICATES FEW OR NO CLOUDS BELOW 12,000 FEET WITH NO
SIGNIFICANT WEATHER AND/OR OBSTRUCTIONS TO VISIBILITY.

OHZ001>008-015>018-024>027-034-035-043-044-010800-
   NORTHWEST OHIO

CITY           SKY/WX    TMP DP  RH WIND       PRES   REMARKS
DEFIANCE       CLEAR     61  58  90 CALM      29.85R
FINDLAY        CLEAR     62  59  90 W9        29.83S
TOLEDO EXPRESS CLEAR     60  58  92 W10       29.82R
TOLEDO EXEC    CLEAR     63  59  87 W8        29.82R
LIMA           CLEAR     62  58  86 W9        29.86R
$$

OHZ009>014-019>023-028>033-038-089-010800-
   NORTHEAST OHIO

CITY           SKY/WX    TMP DP  RH WIND       PRES   REMARKS
CLE-HOPKINS    PTCLDY    63  60  90 SW6       29.81S
CLE-LAKEFRONT  MOCLDY    66  61  84 SW10      29.77F
CUY CO. ARPT   NOT AVBL
LORAIN-ELYRIA  CLOUDY    64  61  90 W5        29.80S
ASHTABULA      LGT RAIN  63  62  97 SW7       29.78F
AKRON-CANTON   CLOUDY    63  60  90 SW8       29.82F FOG
WOOSTER        NOT AVBL
MANSFIELD      CLEAR     62  61  96 W7        29.83S
YOUNGSTOWN     CLOUDY    63  62  97 SW8       29.80F THUNDER FOG
$$

OHZ042-051>053-060>062-070>072-077>081-010800-
  SOUTHWEST OHIO

CITY           SKY/WX    TMP DP  RH WIND       PRES   REMARKS
CINC-COVINGTON CLEAR     64  62  93 CALM      29.88F FOG
CINC-LUNKEN    CLEAR     61  57  87 N3        29.89S FOG
HAMILTON       CLEAR     64  63  96 VRB3      29.89F FOG
DAYTON         NOT AVBL
WRIGHT-PAT AFB MOCLDY    63  63 100 SW5       29.87S
DAYTON GENERAL CLEAR     64  62  93 W3        29.88S
WILMINGTON     CLEAR     62  60  93 SW7       29.88S FOG
$$

OHZ036-037-039>041-045>050-054>059-063>069-073>076-082>088-010800-
  CENTRAL AND SOUTHEAST OHIO

CITY           SKY/WX    TMP DP  RH WIND       PRES   REMARKS
COLUMBUS       PTCLDY    60  60 100 SW3       29.85R FOG
OSU AIRPORT    PTCLDY    63  61  93 SW7       29.85R FOG
BOLTON FIELD   NOT AVBL
RICKENBACK AFB NOT AVBL
NEWARK         PTCLDY    62  59  90 SW5       29.84S
MARION         CLEAR     63  59  87 W10       29.84S
LANCASTER      CLEAR     62  59  90 SW5       29.86S
ZANESVILLE     PTCLDY    61  58  90 SW5       29.84S FOG
NEW PHILLY     MOCLDY    61  59  93 CALM      29.84S
$$


USA.gov is the U.S. government's official web portal to all federal, state and local government web resources and services.